{"data":{"norad_id":65328,"intl_designator":"2025-189F","name":"STARLINK-34885","alt_names":[],"object_type":"PAYLOAD","status":"ACTIVE","operator":null,"country":"US","launch_date":"2025-08-27","launch_site_code":"AFETR","launch_vehicle":null,"mission":null,"orbit_class":"UNKNOWN","rcs_meters":null,"size_class":null,"mass_kg":null,"dimensions":null,"purposes":["comms"],"wikipedia_slug":null,"has_3d_model":false,"image_url":null,"decayed_at":null,"tle_current":{"epoch":"2026-05-25T04:39:57.728160Z","epoch_age_seconds":62290,"freshness":"FRESH","line1":"1 65328U 25189F   26145.19441815  .00018125  00000+0  59414-3 0  9992","line2":"2 65328  53.1577 211.1295 0001142  95.9998 264.1133 15.31714914 42767","mean_motion":15.31714914,"eccentricity":0.0001142,"inclination_deg":53.1577,"raan_deg":211.1295,"arg_perigee_deg":95.9998,"mean_anomaly_deg":264.1133,"bstar":0.00059414,"rev_number":4276,"period_min":94.012272573589,"perigee_km":469.91340105263,"apogee_km":471.47767440425,"semimajor_km":6848.8325377284,"source":"CELESTRAK","updated_at":"2026-05-25T13:38:20.758960Z"}}}